Home > Time Zones > World Clock > Weather > India > Siwan > Past weeks

Flag for India Weather past 2 weeks in Siwan, Bihar, India

Now
100 °F

Passing clouds.


Feels Like: 112 °F
Forecast: 84 / 97 °F
Wind: 9 mph from West

Location: Varanasi / Babatpur

Current Time: Jul 4, 2015 at 3:07:37 PM

Latest Report: Jul 4, 2015 at 2:00 PM


Visibility: 4 mi

Pressure: 29.50 "Hg

Humidity: 42%

Dew point: 73 °F

Location of SiwanLocation

Historic Weather in Siwan — Graph

°F

Siwan temperature yesterday

Maximum temperature yesterday: 102 °F (at 3:00 PM)
Minimum temperature yesterday: 82 °F (at 5:00 AM)
Average temperature yesterday: 91 °F

Past Weeks' High & Low Weather Summary

 TemperatureHumidityPressure
High106 °F (Jun 20, 3:00 PM)100% (Jun 28, 1:00 PM)29.68 "Hg (Jun 28, 1:00 PM)
Low75 °F (Jun 29, 12:00 AM)31% (Jun 19, 2:00 PM)29.30 "Hg (Jun 22, 5:00 PM)
Average90 °F64%29.50 "Hg
* Reported Jun 19 2:00 PM — Jul 4 1:00 PM, Siwan, Weather by CustomWeather, © 2015

Note: Actual official high and low records may vary slightly from our data, if they occured in-between our weather recording intervals... More about our weather records

Advertising

Siwan weather history for previous 24 hours

 ConditionsComfort  
Time TempWeatherWind HumidityBarometerVisibility
1:00 PM
Sat, Jul 4
99 °FHaze.8 mph47%29.53 "Hg3 mi
12:00 PM97 °FHaze.9 mph56%29.53 "Hg3 mi
10:00 AM93 °FHaze.8 mph59%29.56 "Hg2 mi
9:00 AM91 °FHaze.9 mph59%29.56 "Hg2 mi
8:00 AM88 °FHaze.9 mph66%29.53 "Hg2 mi
7:00 AM86 °FHaze.7 mph70%29.53 "Hg2 mi
6:00 AM84 °FHaze.8 mph74%29.50 "Hg2 mi
5:00 AM84 °FHaze.7 mph70%29.47 "Hg2 mi
4:00 AM86 °FHaze.8 mph70%29.47 "Hg2 mi
12:00 AM90 °FHaze.3 mph67%29.53 "Hg2 mi
11:00 PM
Fri, Jul 3
90 °FHaze.5 mph71%29.53 "Hg2 mi
10:00 PM90 °FHaze.5 mph71%29.53 "Hg2 mi
9:00 PM91 °FPassing clouds.5 mph67%29.50 "Hg2 mi
8:00 PM93 °FHaze.3 mph63%29.50 "Hg2 mi
6:00 PM95 °FScattered clouds.3 mph63%29.47 "Hg4 mi
5:00 PM99 °FClear.5 mph50%29.47 "Hg4 mi
3:00 PM102 °FClear.7 mph45%29.53 "Hg4 mi
Weather by CustomWeather, © 2015

See weather overviewHow to use our weather pages